Weather Roundup
Issued by NWS Corpus Christi, TX

Home | Current Version | Previous Version | Text Only | Print | Product List | Glossary On
Versions: 1 2 3 4 5 6 7 8 9 10 11 12 13 14 15 16 17 18 19 20 21 22 23 24 25 26 27 28 29 30 31 32 33 34 35 36 37 38 39 40 41 42 43 44 45 46 47 48 49 50
000
ASUS44 KCRP 241610
HRRCRP

SOUTH TEXAS REGIONAL WEATHER ROUNDUP
NATIONAL WEATHER SERVICE CORPUS CHRISTI TX
1000 AM CST MON FEB 24 2020


TXZ229>244-241700-
...CORPUS CHRISTI AREA OBSERVATIONS...

CITY           SKY/WX    TMP DP  RH WIND       PRES   REMARKS
CORPUS CHRISTI CLOUDY    74  67  78 SW8       29.88R
NAS CORPUS CHR PTSUNNY   74  70  87 S6        29.87R
ROCKPORT       CLOUDY    74  68  81 SW5       29.87S
KINGSVILLE NAS PTSUNNY   76  67  73 S8        29.87R
ALICE          CLOUDY    73  66  78 NW5       29.88R
$$

...VICTORIA AREA OBSERVATIONS...

CITY           SKY/WX    TMP DP  RH WIND       PRES   REMARKS
PORT LAVACA    CLOUDY    73  69  89 SW9       29.88R
VICTORIA       LGT RAIN  69  66  90 W6        29.88R FOG
BEEVILLE       CLOUDY    70  70 100 W5        29.88S
PLEASANTON     SUNNY     67  59  76 NW9       29.93R
SAN ANTONIO    CLOUDY    66  43  43 NW13      29.92S
$$

...LAREDO AREA OBSERVATIONS...

CITY           SKY/WX    TMP DP  RH WIND       PRES   REMARKS
LAREDO         MOSUNNY   69  62  78 NW10      29.94R
COTULLA        SUNNY     72  54  53 N13       29.93R
DEL RIO        SUNNY     70  32  24 NW16G22   29.96S
MCALLEN        MOSUNNY   74  65  73 S5        29.87R
HEBBRONVILLE   CLOUDY    69  63  79 N12       29.92R
$$

...OTHER TEXAS OBSERVATIONS...

CITY           SKY/WX    TMP DP  RH WIND       PRES   REMARKS
BROWNSVILLE    LGT RAIN  72  68  87 SW5       29.86S
HOUSTON        CLOUDY    66  63  90 SW5       29.85R
COL. STATION   SUNNY     69  55  60 NW14      29.85R
AUSTIN         CLOUDY    65  43  44 NW10G22   29.89S
TEMPLE         SUNNY     59  42  53 W15       29.89S
WACO           SUNNY     59  41  51 W12G22    29.86F
FORT WORTH     MOSUNNY   56  40  55 W22G31    29.77F
WICHITA FALLS  PTSUNNY   51  40  65 W22G32    29.80R
LUBBOCK        SUNNY     49  33  54 NW9       29.91S
EL PASO        SUNNY     54  31  41 CALM      30.09S
$$

...MARINE OBSERVATIONS...

STATION/POSITION TIME  SKY/WX   TEMP    WIND        PRES    VSBY  WAVE   SWELL
                                AIR SEA DIR/SP/G                  HT/PER HT/PER
                 (UTC)          (F)     (DEG/KT/KT) (MB)    (MI)  (FT/S) (FT/S)
PORT ARANSAS     1600            65 61  210/  6/  6 1011.4R
BUOY 90 E PORT A NOT AVBL
BUOY 45 SE BAFFI 1600            70 71  180/  4/  6 1012.2
BUOY 200 E PT IS 1600            74 74  180/ 16/ 19 1012.8
BUOY 15 E GALVES 1550                               1012.0R         5/ 7   3/ 7
$$




USA.gov is the U.S. government's official web portal to all federal, state and local government web resources and services.
  • National Weather Service
  • El Paso, TX Weather Forecast Office
  • 7955 Airport Rd
  • Santa Teresa, NM 88008
  • (575) 589-4088
  • Page Author: EPZ Webmaster
  • Web Master's E-mail: sr-epz.webmaster@noaa.gov
  • Page last modified: Feb 14th, 2020 19:38 UTC